Total_Precipitation_Accumulation
0.23 0.27 0.41 0.40 0.32 0.33 0.37 0.40 0.41 0.38 0.32 0.28 0.24 0.22 0.21 0.23 0.29 0.32 0.32 0.36 0.45 0.56 0.62 0.67 0.70 0.65 0.71 0.74 0.73 0.70 0.73 0.88 1.00 1.06 1.10 1.14 1.29 1.54 1.68 1.86 1.93 1.43 1.26
0.07 0.16 0.30 0.34 0.28 0.27 0.29 0.32 0.32 0.32 0.29 0.25 0.23 0.23 0.22 0.23 0.26 0.28 0.29 0.35 0.42 0.48 0.52 0.54 0.61 0.60 0.59 0.60 0.61 0.64 0.72 0.95 1.22 1.36 1.48 1.41 1.56 1.72 1.70 1.74 1.90 1.33 1.22
0.06 0.11 0.17 0.29 0.24 0.21 0.22 0.25 0.26 0.27 0.25 0.25 0.22 0.22 0.24 0.27 0.31 0.34 0.38 0.44 0.46 0.48 0.50 0.50 0.53 0.53 0.52 0.54 0.55 0.62 0.80 1.09 1.41 1.74 2.04 1.53 1.17 1.65 1.67 1.67 1.52 1.19 1.09
0.08 0.07 0.07 0.18 0.22 0.18 0.19 0.22 0.25 0.23 0.21 0.23 0.23 0.22 0.25 0.30 0.36 0.43 0.51 0.49 0.48 0.46 0.44 0.43 0.47 0.41 0.46 0.51 0.56 0.69 0.86 1.15 1.49 1.94 1.99 1.36 0.88 1.18 1.40 1.37 1.18 0.96 0.94
0.07 0.06 0.09 0.14 0.17 0.16 0.18 0.22 0.23 0.22 0.22 0.22 0.23 0.26 0.31 0.37 0.41 0.44 0.48 0.48 0.46 0.44 0.42 0.43 0.44 0.36 0.38 0.47 0.59 0.70 0.86 1.22 1.67 1.78 1.30 1.37 1.38 1.26 1.12 1.08 1.08 0.92 0.87
0.09 0.07 0.10 0.16 0.16 0.17 0.19 0.23 0.24 0.22 0.23 0.24 0.25 0.31 0.37 0.42 0.44 0.42 0.43 0.42 0.42 0.42 0.40 0.41 0.38 0.37 0.41 0.48 0.63 0.75 0.95 1.28 1.58 1.21 0.97 1.13 1.12 1.14 1.09 1.06 1.02 0.91 0.83
0.09 0.11 0.13 0.18 0.19 0.19 0.21 0.23 0.24 0.23 0.24 0.26 0.26 0.30 0.33 0.38 0.41 0.39 0.39 0.39 0.39 0.41 0.37 0.35 0.34 0.44 0.53 0.65 0.76 0.81 0.98 1.26 1.18 0.97 1.09 1.27 1.13 1.08 1.31 1.38 1.21 0.98 0.75
0.09 0.11 0.15 0.19 0.20 0.20 0.22 0.24 0.25 0.25 0.26 0.27 0.28 0.28 0.30 0.33 0.38 0.38 0.38 0.39 0.37 0.38 0.39 0.38 0.37 0.46 0.54 0.65 0.74 0.80 0.95 1.06 0.89 0.81 1.02 1.16 0.93 1.04 1.46 1.57 1.43 1.24 0.93
0.19 0.15 0.20 0.20 0.21 0.24 0.25 0.25 0.26 0.28 0.29 0.29 0.31 0.32 0.32 0.29 0.34 0.37 0.41 0.41 0.40 0.42 0.42 0.44 0.45 0.48 0.51 0.59 0.71 0.83 1.00 1.10 0.93 0.90 0.90 1.02 0.86 1.05 1.43 1.47 1.35 1.30 1.09
0.44 0.40 0.35 0.32 0.30 0.30 0.31 0.31 0.31 0.32 0.32 0.34 0.33 0.37 0.43 0.44 0.42 0.44 0.43 0.45 0.47 0.48 0.52 0.56 0.58 0.62 0.67 0.70 0.78 0.90 1.04 0.95 0.91 0.93 0.96 0.92 0.88 1.22 1.48 1.47 1.43 1.39 1.24
0.72 0.73 0.60 0.56 0.43 0.44 0.41 0.37 0.47 0.46 0.47 0.50 0.53 0.56 0.75 1.00 0.90 0.87 0.67 0.70 0.69 0.69 0.73 0.80 0.83 0.88 0.86 0.85 1.00 1.08 0.95 0.97 1.17 1.00 0.96 0.91 1.11 1.44 1.59 1.64 1.64 1.58 1.48
0.95 0.79 0.75 0.77 0.61 0.62 0.62 0.67 0.94 0.88 0.88 0.96 1.02 1.00 1.30 1.42 1.35 0.98 0.95 1.13 1.17 1.21 1.20 1.27 1.42 1.39 1.14 0.94 1.16 1.49 1.20 1.17 1.21 0.99 0.85 0.96 1.24 1.57 1.70 1.78 1.63 1.57 1.53
1.11 0.97 1.07 1.04 0.90 0.88 1.08 0.93 1.08 1.30 1.45 1.44 1.41 1.57 1.74 1.46 1.25 1.12 1.26 1.47 1.50 1.54 1.57 1.73 1.97 1.79 1.74 1.68 1.74 1.79 1.49 1.41 1.31 1.07 1.13 1.35 1.55 1.86 2.01 1.92 1.79 1.66 1.55
1.62 1.57 1.55 1.56 1.50 1.44 1.29 1.30 1.26 1.30 1.39 1.53 1.60 1.59 1.77 1.81 1.75 1.64 1.64 1.62 1.62 1.72 2.00 2.05 2.21 2.30 2.31 2.07 1.96 1.99 1.78 1.62 1.53 1.47 1.62 1.81 1.85 2.09 2.30 2.14 1.97 1.82 1.71
2.37 2.46 2.43 2.28 2.05 2.05 1.99 1.82 1.51 1.55 1.51 1.49 1.74 1.79 1.86 1.99 2.07 2.05 1.92 1.91 1.64 1.69 2.02 2.34 2.25 2.39 2.55 2.39 2.11 1.97 1.88 1.71 1.67 1.60 1.72 1.92 1.82 1.90 2.19 2.28 2.23 2.08 2.00
3.15 3.54 3.33 3.10 2.78 2.62 2.55 2.40 2.27 1.97 1.86 1.66 1.77 1.89 2.06 2.22 2.31 2.28 2.08 2.00 1.72 1.69 1.93 2.20 2.22 2.41 2.45 2.47 2.09 1.88 1.81 1.87 1.81 1.66 1.72 1.93 1.90 1.74 1.90 2.22 2.43 2.47 2.34
3.78 4.30 4.04 3.90 3.85 3.59 3.41 3.00 2.52 2.19 1.97 2.08 2.18 2.27 2.38 2.44 2.52 2.48 2.31 2.03 1.91 1.97 2.06 2.07 2.14 2.53 2.40 2.30 2.10 2.08 2.02 1.97 1.83 1.76 1.73 1.89 1.71 1.63 1.64 1.81 2.13 2.40 2.67
4.00 4.37 4.69 4.43 4.74 4.61 4.26 3.76 3.23 2.94 2.77 2.62 2.54 2.59 2.45 2.45 2.49 2.61 2.26 1.90 2.05 2.21 2.24 2.22 2.25 2.48 2.50 2.59 2.49 2.32 2.14 1.99 1.57 1.48 1.51 1.58 1.70 1.46 1.58 1.80 1.93 2.05 2.51
4.28 4.76 5.21 5.43 5.49 5.06 4.66 4.23 3.93 3.67 3.37 2.92 2.43 2.18 2.06 1.95 1.91 1.98 1.68 1.57 1.72 1.83 1.73 1.65 1.95 2.16 2.27 2.38 2.28 2.11 1.82 1.66 1.47 1.37 1.39 1.24 1.33 1.37 1.44 1.66 1.84 1.88 2.32
4.41 5.25 5.66 5.76 5.37 4.94 4.56 4.05 3.82 3.50 3.15 2.76 2.28 1.90 1.68 1.62 1.51 1.59 1.33 1.26 1.47 1.60 1.59 1.69 1.83 1.83 1.78 1.85 1.66 1.52 1.41 1.23 1.24 1.20 1.06 1.06 1.06 1.06 1.26 1.53 1.73 1.51 2.00
4.55 5.46 5.81 5.52 4.93 4.47 4.01 3.49 3.08 2.72 2.48 2.35 2.05 1.71 1.56 1.53 1.52 1.62 1.36 1.46 1.49 1.51 1.52 1.57 1.64 1.57 1.37 1.52 1.76 1.58 1.29 1.15 1.09 1.00 0.95 1.02 0.94 0.99 1.23 1.46 1.63 1.71 1.60
3.95 4.70 4.98 4.61 3.95 3.36 3.04 2.86 2.63 2.49 2.18 1.97 1.83 1.69 1.44 1.41 1.41 1.41 1.41 1.20 1.21 1.31 1.22 1.26 1.51 1.50 1.28 1.39 1.68 1.75 1.51 1.45 1.24 0.80 0.82 0.89 0.90 1.02 1.17 1.27 1.54 1.77 1.71
3.42 3.43 3.53 3.40 2.88 2.52 2.40 2.37 2.31 2.32 2.10 1.84 1.69 1.50 1.29 1.23 1.19 1.20 1.16 1.13 1.20 1.16 1.20 1.25 1.33 1.40 1.32 1.24 1.36 1.72 1.60 1.39 1.19 0.97 0.89 0.84 0.95 1.13 1.19 1.29 1.33 1.43 1.55
2.55 2.37 2.37 2.43 2.24 2.17 2.07 2.05 1.90 1.72 1.64 1.51 1.49 1.40 1.28 1.21 1.15 1.06 1.05 1.01 1.07 1.08 1.25 1.10 1.16 1.27 1.29 1.15 1.19 1.30 1.33 1.36 1.32 1.18 1.03 0.94 1.00 1.12 1.23 1.25 1.37 1.47 1.51
1.66 1.71 1.88 2.09 2.09 1.99 1.93 2.00 1.97 1.69 1.51 1.41 1.41 1.44 1.31 1.19 1.12 1.05 1.05 1.08 1.08 1.05 1.08 1.11 1.26 1.21 1.17 1.12 1.13 1.20 1.32 1.34 1.24 1.24 1.19 1.05 0.99 0.89 1.02 1.24 1.41 1.58 1.54
1.07 1.22 1.42 1.78 1.91 1.83 1.77 1.79 1.74 1.65 1.57 1.43 1.30 1.29 1.27 1.18 1.15 1.17 1.13 1.17 1.11 1.07 1.06 1.06 1.13 1.13 1.17 1.22 1.14 1.12 1.29 1.36 1.28 1.28 1.19 1.07 0.99 0.84 0.87 1.10 1.43 1.70 1.70